Flag for Pakistan Weather past 2 weeks in Faisalabad, Pakistan

Now
93 °F

Broken clouds.


Feels Like: 117 °F
Forecast: 94 / 114 °F
Wind: 9 mph from Southeast

Location: Amritsar Airport

Current Time: Jul 23, 2014 at 1:33:37 PM

Latest Report: Jul 23, 2014 at 10:30 AM


Visibility: 2 mi

Pressure: 29.50 "Hg

Humidity: 71%

Dew point: 82 °F

Location of FaisalabadLocation

Historic Weather in Faisalabad — Graph

°F

Faisalabad temperature yesterday

Maximum temperature yesterday: 97 °F (at 1:00 PM)
Minimum temperature yesterday: 84 °F (at 4:30 AM)
Average temperature yesterday: 91 °F

Past Weeks' High & Low Weather Summary

 TemperatureHumidityPressure
High104 °F (Jul 8, 3:30 PM)100% (Jul 17, 10:00 PM)29.56 "Hg (Jul 17, 10:00 PM)
Low79 °F (Jul 17, 2:30 PM)31% (Jul 11, 3:30 PM)29.36 "Hg (Jul 15, 4:30 PM)
Average90 °F69%29.46 "Hg
* Reported Jul 8 10:00 AM — Jul 23 10:00 AM, Faisalabad, Weather by CustomWeather, © 2014

Note: Actual official high and low records may vary slightly from our data, if they occured in-between our weather recording intervals... More about our weather records

Advertising

Faisalabad weather history for previous 24 hours

 ConditionsComfort  
Time TempWeatherWind HumidityBarometerVisibility
10:00 AM
Jul 23
91 °FBroken clouds.7 mph75%29.50 "Hg2 mi
9:00 AM88 °FFog.5 mph84%29.50 "Hg1 mi
8:30 AM88 °FFog.2 mph89%29.50 "Hg1 mi
8:00 AM86 °FFog.6 mph89%29.50 "Hg1 mi
10:00 PM
Jul 22
88 °FFog.1 mph84%29.47 "Hg1 mi
9:30 PM88 °FFog.No wind84%29.47 "Hg1 mi
8:00 PM90 °FFog.5 mph79%29.45 "Hg2 mi
7:00 PM91 °FBroken clouds.No wind75%29.45 "Hg2 mi
6:30 PM91 °FBroken clouds.No wind71%29.45 "Hg2 mi
6:00 PM93 °FBroken clouds.No wind71%29.45 "Hg2 mi
5:30 PM93 °FBroken clouds.No wind63%29.45 "Hg2 mi
4:00 PM97 °FScattered clouds.2 mph56%29.45 "Hg3 mi
3:00 PM97 °FBroken clouds.1 mph56%29.47 "Hg3 mi
2:30 PM95 °FBroken clouds.5 mph60%29.47 "Hg3 mi
2:00 PM97 °FScattered clouds.5 mph56%29.47 "Hg3 mi
1:00 PM97 °FScattered clouds.No wind60%29.50 "Hg3 mi
Weather by CustomWeather, © 2014

See weather overviewHow to use our weather pages